Estación de Morza Norte

Ultimos registro cada 15 minutos 88
Estación Fecha / Hora Temperatura Humedad Lluvia Velocidad Dirección Radiación Presion
88 Morza Norte 06-05-2026 21:45 11,1 71 0 0 263 0 1023,2
87 Morza Norte 06-05-2026 21:30 11 99 0 0 264 0 1023
86 Morza Norte 06-05-2026 21:15 11,1 71 0 0 264 0 1023,1
85 Morza Norte 06-05-2026 21:00 11,1 71 0 0 264 0 1023,2
84 Morza Norte 06-05-2026 20:45 11,2 71 0 0 264 0 1023,2
83 Morza Norte 06-05-2026 20:30 11,2 99 0 0 264 0 1023,5
82 Morza Norte 06-05-2026 20:15 11,3 71 0 0 261 0 1022,8
81 Morza Norte 06-05-2026 20:00 11,3 71 0 0 261 0 1022,6
80 Morza Norte 06-05-2026 19:45 11,3 71 0 0 261 0 1022,4
79 Morza Norte 06-05-2026 19:30 11,3 99 0 0 261 0 1022,4
78 Morza Norte 06-05-2026 19:15 11,3 71 0 0 261 0 1022,2
77 Morza Norte 06-05-2026 19:00 11,3 71 0 0 261 0 1022,2
76 Morza Norte 06-05-2026 18:45 11,4 71 0 0 261 0 1022,3
75 Morza Norte 06-05-2026 18:30 11,6 99 0 0 260 0 1021,7
74 Morza Norte 06-05-2026 18:15 11,8 71 0 0 255 0 1021,7
73 Morza Norte 06-05-2026 18:00 12,1 71 0 0 241 0 1021,4
72 Morza Norte 06-05-2026 17:45 12,3 71 0 0 241 0 1021,1
71 Morza Norte 06-05-2026 17:30 12,6 71 0 0 240 11 1021
70 Morza Norte 06-05-2026 17:15 12,8 71 0 0 239 14 1020,7
69 Morza Norte 06-05-2026 17:00 13,1 71 0 0 324 60 1020,6
68 Morza Norte 06-05-2026 16:45 13,1 71 0 0 324 60 1020,6
67 Morza Norte 06-05-2026 16:30 13,1 71 0 0 150 60 1020,7
66 Morza Norte 06-05-2026 16:15 13,2 71 0,2 0 322 137 1020,4
65 Morza Norte 06-05-2026 16:00 13,3 71 0 0 236 47 1020,4
64 Morza Norte 06-05-2026 15:45 13,3 71 0 0 236 47 1020,4
63 Morza Norte 06-05-2026 15:30 13,3 71 0 0 236 37 1020,3
62 Morza Norte 06-05-2026 15:15 13,6 71 0 0 275 32 1020,1
61 Morza Norte 06-05-2026 15:00 13,9 71 0 0 262 30 1019,8
60 Morza Norte 06-05-2026 14:45 13,9 71 0,2 0 292 128 1019,3
59 Morza Norte 06-05-2026 14:30 13,9 71 0,2 0,4 306 65 1019,2
58 Morza Norte 06-05-2026 14:15 14,2 71 0,2 1,3 245 63 1019
57 Morza Norte 06-05-2026 14:00 14,2 72 0 2,7 264 139 1018,7
56 Morza Norte 06-05-2026 13:45 14,1 72 0,2 3,1 282 123 1018,9
55 Morza Norte 06-05-2026 13:30 13,9 72 0,6 0,4 312 47 1018,7
54 Morza Norte 06-05-2026 13:15 13,8 72 0,8 0 333 116 1018,2
53 Morza Norte 06-05-2026 13:00 13,8 72 0,6 0 13 100 1017,9
52 Morza Norte 06-05-2026 12:45 13,8 72 0,6 0 13 100 1017,9
51 Morza Norte 06-05-2026 12:30 13,3 72 0,4 0,4 1 58 1018,1
50 Morza Norte 06-05-2026 12:15 13,2 72 0,6 0 358 26 1017,9
49 Morza Norte 06-05-2026 12:00 12,9 72 0,6 0 288 30 1017,8
48 Morza Norte 06-05-2026 11:45 12,9 99 0,4 0 4 25 1017,6
47 Morza Norte 06-05-2026 11:30 12,8 72 0,6 0,9 20 84 1017,4
46 Morza Norte 06-05-2026 11:15 12,7 72 1 0,4 356 28 1017,3
45 Morza Norte 06-05-2026 11:00 12,4 73 0,2 0 278 62 1017,1
44 Morza Norte 06-05-2026 10:45 12,4 73 0,2 0 278 62 1017,1
43 Morza Norte 06-05-2026 10:30 11,9 72 0 0 272 19 1016,6
42 Morza Norte 06-05-2026 10:15 11,7 72 0,2 0 277 30 1016,2
41 Morza Norte 06-05-2026 10:00 11,4 73 0,2 0 236 35 1015,5
40 Morza Norte 06-05-2026 09:45 11,4 73 0,2 0 236 35 1015,5
39 Morza Norte 06-05-2026 09:30 11,1 73 0 0 236 51 1015,8
38 Morza Norte 06-05-2026 09:15 10,9 73 0 0 81 12 1015,2
37 Morza Norte 06-05-2026 09:00 10,4 73 0 0 81 65 1015,2
36 Morza Norte 06-05-2026 08:45 10,2 72 0,2 0 81 23 1015,7
35 Morza Norte 06-05-2026 08:30 9,9 99 0 0 81 12 1015,6
34 Morza Norte 06-05-2026 08:15 9,6 73 0,2 0 112 12 1015,9
33 Morza Norte 06-05-2026 08:00 9,4 73 0 0 292 5 1015,9
32 Morza Norte 06-05-2026 07:45 8,9 74 0 0 291 11 1015,6
31 Morza Norte 06-05-2026 07:30 7,8 73 0 0 270 7 1015,6
30 Morza Norte 06-05-2026 07:15 6,5 73 0 0 132 0 1014,9
29 Morza Norte 06-05-2026 07:00 5,8 72 0 0 132 0 1014,5
28 Morza Norte 06-05-2026 06:45 5,4 72 0 0 132 0 1014,4
27 Morza Norte 06-05-2026 06:30 5,4 99 0 0 132 0 1014,5
26 Morza Norte 06-05-2026 06:15 5,9 72 0 0 132 0 1014,8
25 Morza Norte 06-05-2026 06:00 6,1 71 0 0 132 0 1014,6
24 Morza Norte 06-05-2026 05:45 6,3 71 0 0 132 0 1014,8
23 Morza Norte 06-05-2026 05:30 6,6 99 0 0 292 0 1014,9
22 Morza Norte 06-05-2026 05:15 6,8 71 0 0 295 0 1014,9
21 Morza Norte 06-05-2026 05:00 6,9 71 0 0 297 0 1014,6
20 Morza Norte 06-05-2026 04:45 7,2 71 0 0 297 0 1014,6
19 Morza Norte 06-05-2026 04:30 7,6 99 0 0 299 0 1014,7
18 Morza Norte 06-05-2026 04:15 7,4 71 0 0 312 0 1014,7
17 Morza Norte 06-05-2026 04:00 7,7 71 0 0 128 0 1014,7
16 Morza Norte 06-05-2026 03:45 8,4 71 0 0 128 0 1015,3
15 Morza Norte 06-05-2026 03:30 8,7 99 0 0 128 0 1015,3
14 Morza Norte 06-05-2026 03:15 8,8 71 0 0 128 0 1015,4
13 Morza Norte 06-05-2026 03:00 8,7 71 0 0 153 0 1015,5
12 Morza Norte 06-05-2026 02:45 8,8 71 0 0 156 0 1015,4
11 Morza Norte 06-05-2026 02:30 8,7 99 0 0 156 0 1015,2
10 Morza Norte 06-05-2026 02:15 8,2 70 0 0 156 0 1015,3
9 Morza Norte 06-05-2026 02:00 8,3 70 0 0 156 0 1015,2
8 Morza Norte 06-05-2026 01:45 8,8 99 0 0 156 0 1015,1
7 Morza Norte 06-05-2026 01:30 9,1 70 0 0 10 0 1015,2
6 Morza Norte 06-05-2026 01:15 9,7 71 0 0 7 0 1015,1
5 Morza Norte 06-05-2026 01:00 9,5 68 0 0 255 0 1015,5
4 Morza Norte 06-05-2026 00:45 9,5 99 0 0 255 0 1015,5
3 Morza Norte 06-05-2026 00:30 9,7 68 0 0 255 0 1015,6
2 Morza Norte 06-05-2026 00:15 9,8 68 0 0 255 0 1015,8
1 Morza Norte 06-05-2026 00:00 10 67 0 0 255 0 1015,8